Hourly Weather Otrokovichi

Today, 23 July, Friday

Time Temperature Precipitation Wind Pressure Humidity
00:00 +14°C° 0 mm 2 mps 745 mmHg 72%
01:00 +14°C° 0 mm 2 mps 744 mmHg 72%
02:00 +14°C° 0 mm 2 mps 744 mmHg 73%
03:00 +14°C° 0.2 mm 2 mps 744 mmHg 76%
04:00 +13°C° 0.2 mm 3 mps 743 mmHg 80%
05:00 +13°C° 0.2 mm 3 mps 743 mmHg 84%
06:00 +14°C° 0.2 mm 3 mps 743 mmHg 83%
07:00 +15°C° 0.2 mm 4 mps 742 mmHg 82%
08:00 +17°C° 0 mm 4 mps 742 mmHg 80%
09:00 +18°C° 0.6 mm 4 mps 742 mmHg 76%
10:00 +19°C° 0.6 mm 5 mps 742 mmHg 71%
11:00 +20°C° 0.6 mm 5 mps 742 mmHg 67%
12:00 +20°C° 0.2 mm 5 mps 742 mmHg 61%
13:00 +21°C° 0.2 mm 5 mps 742 mmHg 55%
14:00 +22°C° 0.2 mm 5 mps 742 mmHg 49%
15:00 +21°C° 0.2 mm 5 mps 743 mmHg 54%
16:00 +20°C° 0.2 mm 5 mps 743 mmHg 59%
17:00 +19°C° 0.2 mm 4 mps 743 mmHg 64%
18:00 +18°C° 0 mm 4 mps 744 mmHg 66%
19:00 +17°C° 0 mm 3 mps 744 mmHg 68%
20:00 +16°C° 0 mm 2 mps 744 mmHg 70%
21:00 +15°C° 0 mm 2 mps 744 mmHg 73%
22:00 +14°C° 0 mm 2 mps 745 mmHg 76%
23:00 +13°C° 0 mm 2 mps 745 mmHg 79%

Tomorrow, 24 July, Saturday

Time Temperature Precipitation Wind Pressure Humidity
00:00 +13°C° 0 mm 2 mps 745 mmHg 76%
01:00 +13°C° 0 mm 2 mps 746 mmHg 73%
02:00 +13°C° 0 mm 2 mps 746 mmHg 70%
03:00 +13°C° 0 mm 2 mps 746 mmHg 72%
04:00 +12°C° 0 mm 2 mps 747 mmHg 75%
05:00 +12°C° 0 mm 2 mps 747 mmHg 77%
06:00 +14°C° 0 mm 2 mps 748 mmHg 71%
07:00 +14°C° 0 mm 3 mps 748 mmHg 65%
08:00 +17°C° 0 mm 3 mps 748 mmHg 59%
09:00 +18°C° 0.1 mm 3 mps 749 mmHg 53%
10:00 +19°C° 0.1 mm 3 mps 749 mmHg 47%
11:00 +20°C° 0.1 mm 2 mps 749 mmHg 42%
12:00 +20°C° 0 mm 2 mps 749 mmHg 39%
13:00 +21°C° 0 mm 2 mps 749 mmHg 37%
14:00 +22°C° 0 mm 1 mps 749 mmHg 35%
15:00 +22°C° 0 mm 1 mps 750 mmHg 36%
16:00 +22°C° 0 mm 1 mps 750 mmHg 36%
17:00 +22°C° 0 mm 1 mps 750 mmHg 36%
18:00 +21°C° 0 mm 1 mps 750 mmHg 41%
19:00 +19°C° 0 mm 1 mps 750 mmHg 46%
20:00 +15°C° 0 mm 0 mps 751 mmHg 52%
21:00 +16°C° 0 mm 1 mps 751 mmHg 53%
22:00 +16°C° 0 mm 1 mps 751 mmHg 55%
23:00 +15°C° 0 mm 2 mps 752 mmHg 57%

Day after tomorrow, 25 July, Sunday

Time Temperature Precipitation Wind Pressure Humidity
00:00 +15°C° 0 mm 2 mps 752 mmHg 58%
01:00 +15°C° 0 mm 1 mps 752 mmHg 59%
02:00 +15°C° 0 mm 1 mps 752 mmHg 61%
03:00 +15°C° 0 mm 1 mps 752 mmHg 62%
04:00 +15°C° 0 mm 1 mps 753 mmHg 64%
05:00 +15°C° 0 mm 1 mps 753 mmHg 65%
06:00 +16°C° 0 mm 1 mps 753 mmHg 61%
07:00 +18°C° 0 mm 1 mps 753 mmHg 57%
08:00 +20°C° 0 mm 1 mps 753 mmHg 54%
09:00 +21°C° 0 mm 1 mps 754 mmHg 48%
10:00 +23°C° 0 mm 1 mps 754 mmHg 42%
11:00 +25°C° 0 mm 1 mps 754 mmHg 36%
12:00 +25°C° 0 mm 1 mps 754 mmHg 34%
13:00 +25°C° 0 mm 1 mps 754 mmHg 32%
14:00 +26°C° 0 mm 1 mps 754 mmHg 31%
15:00 +26°C° 0 mm 1 mps 754 mmHg 33%
16:00 +25°C° 0 mm 1 mps 754 mmHg 34%
17:00 +25°C° 0 mm 1 mps 754 mmHg 36%
18:00 +23°C° 0 mm 1 mps 754 mmHg 43%
19:00 +21°C° 0 mm 1 mps 754 mmHg 50%
20:00 +17°C° 0 mm 0 mps 754 mmHg 57%
21:00 +18°C° 0 mm 1 mps 755 mmHg 58%
22:00 +18°C° 0 mm 1 mps 755 mmHg 59%
23:00 +16°C° 0 mm 1 mps 755 mmHg 60%

26 July, Monday

Time Temperature Precipitation Wind Pressure Humidity
00:00 +16°C° 0 mm 1 mps 755 mmHg 59%
01:00 +16°C° 0 mm 1 mps 755 mmHg 58%
02:00 +16°C° 0 mm 1 mps 755 mmHg 58%
03:00 +16°C° 0 mm 1 mps 756 mmHg 60%
04:00 +16°C° 0 mm 1 mps 756 mmHg 63%
05:00 +16°C° 0 mm 1 mps 756 mmHg 66%
06:00 +17°C° 0 mm 2 mps 756 mmHg 63%
07:00 +19°C° 0 mm 2 mps 756 mmHg 60%
08:00 +20°C° 0 mm 2 mps 756 mmHg 57%
09:00 +21°C° 0 mm 2 mps 756 mmHg 53%
10:00 +24°C° 0 mm 2 mps 756 mmHg 49%
11:00 +25°C° 0 mm 2 mps 756 mmHg 46%
12:00 +26°C° 0 mm 2 mps 756 mmHg 43%
13:00 +27°C° 0 mm 1 mps 756 mmHg 40%
14:00 +28°C° 0 mm 1 mps 755 mmHg 37%
15:00 +27°C° 0 mm 1 mps 755 mmHg 40%
16:00 +26°C° 0 mm 1 mps 755 mmHg 42%
17:00 +26°C° 0 mm 1 mps 755 mmHg 45%
18:00 +24°C° 0 mm 1 mps 755 mmHg 50%
19:00 +23°C° 0 mm 1 mps 755 mmHg 54%
20:00 +21°C° 0 mm 1 mps 755 mmHg 59%
21:00 +20°C° 0 mm 1 mps 755 mmHg 62%
22:00 +19°C° 0 mm 2 mps 755 mmHg 65%
23:00 +18°C° 0 mm 2 mps 755 mmHg 68%

27 July, Tuesday

Time Temperature Precipitation Wind Pressure Humidity
00:00 +18°C° 0 mm 2 mps 755 mmHg 69%
01:00 +18°C° 0 mm 2 mps 755 mmHg 70%
02:00 +18°C° 0 mm 2 mps 755 mmHg 71%
03:00 +19°C° 0 mm 1 mps 756 mmHg 72%
04:00 +19°C° 0 mm 1 mps 756 mmHg 72%
05:00 +19°C° 0 mm 1 mps 756 mmHg 73%
06:00 +21°C° 0 mm 1 mps 756 mmHg 67%
07:00 +23°C° 0 mm 1 mps 756 mmHg 61%
08:00 +25°C° 0 mm 1 mps 756 mmHg 54%
09:00 +26°C° 0 mm 1 mps 756 mmHg 49%
10:00 +28°C° 0 mm 1 mps 755 mmHg 44%
11:00 +29°C° 0 mm 1 mps 755 mmHg 39%
12:00 +29°C° 0 mm 1 mps 755 mmHg 40%
13:00 +28°C° 0 mm 1 mps 755 mmHg 41%
14:00 +28°C° 0 mm 1 mps 754 mmHg 42%
15:00 +27°C° 0 mm 1 mps 754 mmHg 46%
16:00 +26°C° 0 mm 2 mps 754 mmHg 50%
17:00 +24°C° 0 mm 2 mps 754 mmHg 54%
18:00 +24°C° 0 mm 2 mps 754 mmHg 53%
19:00 +24°C° 0 mm 1 mps 754 mmHg 52%
20:00 +23°C° 0 mm 1 mps 753 mmHg 50%
21:00 +22°C° 0 mm 1 mps 753 mmHg 55%
22:00 +20°C° 0 mm 2 mps 753 mmHg 59%
23:00 +19°C° 0 mm 2 mps 753 mmHg 63%

28 July, Wednesday

Time Temperature Precipitation Wind Pressure Humidity
00:00 +18°C° 0 mm 2 mps 753 mmHg 65%
01:00 +18°C° 0 mm 2 mps 753 mmHg 68%
02:00 +17°C° 0 mm 2 mps 753 mmHg 70%
03:00 +17°C° 0 mm 2 mps 753 mmHg 70%
04:00 +17°C° 0 mm 2 mps 753 mmHg 71%
05:00 +19°C° 0 mm 1 mps 753 mmHg 71%
06:00 +20°C° 0 mm 2 mps 752 mmHg 64%
07:00 +23°C° 0 mm 2 mps 752 mmHg 56%
08:00 +26°C° 0 mm 3 mps 752 mmHg 49%
09:00 +27°C° 0 mm 3 mps 752 mmHg 46%
10:00 +28°C° 0 mm 4 mps 751 mmHg 42%
11:00 +30°C° 0 mm 4 mps 751 mmHg 38%
12:00 +29°C° 0 mm 4 mps 750 mmHg 42%
13:00 +28°C° 0 mm 4 mps 750 mmHg 46%
14:00 +27°C° 0 mm 3 mps 750 mmHg 50%
15:00 +27°C° 0 mm 4 mps 750 mmHg 52%
16:00 +26°C° 0 mm 4 mps 750 mmHg 54%
17:00 +25°C° 0 mm 5 mps 749 mmHg 57%
18:00 +23°C° 0 mm 4 mps 749 mmHg 59%
19:00 +22°C° 0 mm 4 mps 749 mmHg 61%
20:00 +20°C° 0 mm 3 mps 748 mmHg 64%
21:00 +20°C° 0 mm 3 mps 748 mmHg 66%
22:00 +20°C° 0 mm 3 mps 747 mmHg 68%
23:00 +19°C° 0 mm 2 mps 747 mmHg 71%
Show more